This is the latest recevied weather packets stored in our database for station/object WO5CID. If no packets are shown the sender has not sent any weather packets the latest 10 day(s).
| Time | Temp. | Humidity | Pressure | Rain* | Wind** | Luminosity | Snow |
|---|---|---|---|---|---|---|---|
| 1778185913 | 34.44° C | 29% | 1012.5 hPa | 0 mm | - | 416 W/m² | - |
| 1778185608 | 34.44° C | 30% | 1012.6 hPa | 0 mm | - | 403 W/m² | - |
| 1778185304 | 35° C | 30% | 1012.8 hPa | 0 mm | - | 629 W/m² | - |
| 1778185000 | 35° C | 30% | 1012.9 hPa | 0 mm | - | 648 W/m² | - |
| 1778184697 | 35° C | 32% | 1012.8 hPa | 0 mm | - | 664 W/m² | - |
| 1778184393 | 35.56° C | 30% | 1012.8 hPa | 0 mm | - | 685 W/m² | - |
| 1778184089 | 35.56° C | 32% | 1012.7 hPa | 0 mm | - | 695 W/m² | - |
| 1778183786 | 35° C | 34% | 1012.6 hPa | 0 mm | - | 702 W/m² | - |
| 1778183483 | 35° C | 33% | 1013.2 hPa | 0 mm | - | 738 W/m² | - |
| 1778183180 | 35° C | 35% | 1012.9 hPa | 0 mm | - | 568 W/m² | - |
| 1778182875 | 34.44° C | 36% | 1013.2 hPa | 0 mm | - | 818 W/m² | - |
| 1778182573 | 34.44° C | 36% | 1013 hPa | 0 mm | - | 221 W/m² | - |
| 1778182270 | 34.44° C | 35% | 1013.1 hPa | 0 mm | - | 841 W/m² | - |
| 1778181966 | 35° C | 35% | 1012.8 hPa | 0 mm | - | 253 W/m² | - |
| 1778181663 | 35.56° C | 32% | 1013 hPa | 0 mm | - | 817 W/m² | - |
| 1778181358 | 35° C | 34% | 1013.3 hPa | 0 mm | - | 811 W/m² | - |
| 1778181056 | 35° C | 35% | 1013 hPa | 0 mm | - | 775 W/m² | - |
| 1778180753 | 35.56° C | 34% | 1013.2 hPa | 0 mm | - | 846 W/m² | - |
| 1778180452 | 35.56° C | 33% | 1013.4 hPa | 0 mm | - | 860 W/m² | - |
| 1778180149 | 35° C | 33% | 1013.2 hPa | 0 mm | - | 838 W/m² | - |
| 1778179846 | 35° C | 33% | 1013.3 hPa | 0 mm | - | 791 W/m² | - |
| 1778179544 | 34.44° C | 31% | 1013.3 hPa | 0 mm | - | 897 W/m² | - |
| 1778179242 | 35° C | 31% | 1013.6 hPa | 0 mm | - | 545 W/m² | - |
| 1778178937 | 35° C | 31% | 1013.6 hPa | 0 mm | - | 812 W/m² | - |
| 1778178635 | 35.56° C | 31% | 1013.6 hPa | 0 mm | - | 935 W/m² | - |
* Rain latest hour (hover to see other rain measurements)
** Current wind speed in m/s (hover to see current wind gust speed)